| time (UTC) | temp C | wind direction | speed KPH | gust KPH | rain 1hr cm | rain 24hr cm | rain mn cm | humidity % | barometer mb |
| 20260906095644 | 31 | 35 | 4.8 | 12.9 | 0.00 | 0.00 | 0.00 | 51 | 1019.5 |
| 20260906095150 | 31 | 47 | 3.2 | 9.7 | 0.00 | 0.00 | 0.00 | 51 | 1019.6 |
| 20260906094644 | 31 | 305 | 4.8 | 12.9 | 0.00 | 0.00 | 0.00 | 52 | 1019.6 |
| 20260906094144 | 31 | 305 | 12.9 | 12.9 | 0.00 | 0.00 | 0.00 | 54 | 1019.6 |
| 20260906093650 | 31 | 14 | 0.0 | 9.7 | 0.00 | 0.00 | 0.00 | 53 | 1019.7 |
| 20260906093144 | 31 | 304 | 4.8 | 11.3 | 0.00 | 0.00 | 0.00 | 56 | 1019.7 |
| 20260906092644 | 31 | 338 | 0.0 | 9.7 | 0.00 | 0.00 | 0.00 | 57 | 1019.7 |
| 20260906092144 | 31 | 310 | 8.0 | 14.5 | 0.00 | 0.00 | 0.00 | 58 | 1019.8 |
| 20260906091644 | 31 | 36 | 3.2 | 8.0 | 0.00 | 0.00 | 0.00 | 58 | 1019.8 |
| 20260906091150 | 31 | 300 | 9.7 | 11.3 | 0.00 | 0.00 | 0.00 | 59 | 1019.9 |
| 20260906090644 | 31 | 355 | 4.8 | 9.7 | 0.00 | 0.00 | 0.00 | 60 | 1019.9 |
| 20260906090147 | 31 | 285 | 6.4 | 9.7 | 0.00 | 0.00 | 0.00 | 61 | 1019.8 |
| 20260906085647 | 30 | 279 | 4.8 | 8.0 | 0.00 | 0.00 | 0.00 | 62 | 1019.8 |
| 20260906085144 | 30 | 340 | 1.6 | 9.7 | 0.00 | 0.00 | 0.00 | 62 | 1019.8 |
| 20260906084644 | 30 | 231 | 0.0 | 6.4 | 0.00 | 0.00 | 0.00 | 63 | 1019.7 |
| 20260906084144 | 30 | 277 | 3.2 | 9.7 | 0.00 | 0.00 | 0.00 | 63 | 1019.8 |
| 20260906083644 | 30 | 257 | 6.4 | 8.0 | 0.00 | 0.00 | 0.00 | 63 | 1019.8 |
| 20260906083144 | 31 | 348 | 3.2 | 11.3 | 0.00 | 0.00 | 0.00 | 63 | 1019.8 |
| 20260906082650 | 31 | 283 | 6.4 | 8.0 | 0.00 | 0.00 | 0.00 | 62 | 1019.8 |
| 20260906082144 | 31 | 238 | 0.0 | 3.2 | 0.00 | 0.00 | 0.00 | 59 | 1019.8 |
| 20260906081644 | 30 | 320 | 3.2 | 4.8 | 0.00 | 0.00 | 0.00 | 59 | 1019.8 |
| 20260906081148 | 30 | 320 | 3.2 | 4.8 | 0.00 | 0.00 | 0.00 | 61 | 1019.8 |
| 20260906080647 | 30 | 320 | 3.2 | 6.4 | 0.00 | 0.00 | 0.00 | 62 | 1019.7 |
| 20260906080144 | 30 | 300 | 0.0 | 4.8 | 0.00 | 0.00 | 0.00 | 64 | 1019.7 |
| 20260906075647 | 29 | 90 | 4.8 | 8.0 | 0.00 | 0.00 | 0.00 | 63 | 1019.7 |
| 20260906075147 | 29 | 44 | 0.0 | 4.8 | 0.00 | 0.00 | 0.00 | 63 | 1019.7 |
| 20260906074650 | 29 | 19 | 4.8 | 6.4 | 0.00 | 0.00 | 0.00 | 64 | 1019.6 |
| 20260906074144 | 29 | 5 | 1.6 | 8.0 | 0.00 | 0.00 | 0.00 | 65 | 1019.6 |
| 20260906073644 | 29 | 12 | 8.0 | 8.0 | 0.00 | 0.00 | 0.00 | 66 | 1019.7 |
| 20260906073145 | 29 | 26 | 4.8 | 4.8 | 0.00 | 0.00 | 0.00 | 67 | 1019.6 |
| 20260906072650 | 29 | 303 | 0.0 | 6.4 | 0.00 | 0.00 | 0.00 | 68 | 1019.7 |
| 20260906072144 | 28 | 302 | 4.8 | 4.8 | 0.00 | 0.00 | 0.00 | 70 | 1019.6 |
| 20260906071644 | 28 | 348 | 0.0 | 4.8 | 0.00 | 0.00 | 0.00 | 70 | 1019.6 |
| 20260906071144 | 28 | 295 | 0.0 | 6.4 | 0.00 | 0.00 | 0.00 | 70 | 1019.6 |
| 20260906070644 | 28 | 240 | 0.0 | 4.8 | 0.00 | 0.00 | 0.00 | 68 | 1019.5 |
| 20260906070147 | 28 | 247 | 3.2 | 6.4 | 0.00 | 0.00 | 0.00 | 67 | 1019.5 |
| 20260906065644 | 28 | 178 | 0.0 | 0.0 | 0.00 | 0.00 | 0.00 | 68 | 1019.5 |
| 20260906065144 | 27 | 178 | 0.0 | 4.8 | 0.00 | 0.00 | 0.00 | 67 | 1019.4 |
| 20260906064644 | 27 | 182 | 1.6 | 6.4 | 0.00 | 0.00 | 0.00 | 66 | 1019.4 |
| 20260906064153 | 27 | 183 | 4.8 | 6.4 | 0.00 | 0.00 | 0.00 | 64 | 1019.3 |
| 20260906063644 | 27 | 182 | 1.6 | 4.8 | 0.00 | 0.00 | 0.00 | 63 | 1019.4 |
| 20260906063144 | 27 | 171 | 0.0 | 6.4 | 0.00 | 0.00 | 0.00 | 63 | 1019.3 |
| 20260906062650 | 27 | 206 | 1.6 | 6.4 | 0.00 | 0.00 | 0.00 | 62 | 1019.3 |
| 20260906062144 | 26 | 148 | 1.6 | 6.4 | 0.00 | 0.00 | 0.00 | 62 | 1019.3 |
| 20260906061650 | 26 | 132 | 4.8 | 6.4 | 0.00 | 0.00 | 0.00 | 62 | 1019.4 |
| 20260906061150 | 26 | 153 | 1.6 | 4.8 | 0.00 | 0.00 | 0.00 | 62 | 1019.3 |
| 20260906060644 | 26 | 150 | 1.6 | 8.0 | 0.00 | 0.00 | 0.00 | 63 | 1019.4 |
| 20260906060144 | 26 | 117 | 3.2 | 8.0 | 0.00 | 0.00 | 0.00 | 63 | 1019.4 |
| 20260906055644 | 25 | 141 | 3.2 | 8.0 | 0.00 | 0.00 | 0.00 | 63 | 1019.3 |
| 20260906055147 | 25 | 143 | 3.2 | 8.0 | 0.00 | 0.00 | 0.00 | 63 | 1019.2 |
| 20260906054644 | 25 | 236 | 1.6 | 11.3 | 0.00 | 0.00 | 0.00 | 64 | 1019.2 |
| 20260906054147 | 25 | 153 | 4.8 | 8.0 | 0.00 | 0.00 | 0.00 | 64 | 1019.2 |
| 20260906053651 | 24 | 168 | 3.2 | 9.7 | 0.00 | 0.00 | 0.00 | 65 | 1019.1 |
| 20260906053144 | 24 | 138 | 1.6 | 11.3 | 0.00 | 0.00 | 0.00 | 64 | 1019.1 |
| 20260906052644 | 24 | 215 | 1.6 | 11.3 | 0.00 | 0.00 | 0.00 | 64 | 1019.1 |
| 20260906052147 | 24 | 145 | 6.4 | 11.3 | 0.00 | 0.00 | 0.00 | 64 | 1019.0 |
| 20260906051653 | 23 | 175 | 6.4 | 11.3 | 0.00 | 0.00 | 0.00 | 63 | 1019.1 |
| 20260906051144 | 23 | 167 | 1.6 | 8.0 | 0.00 | 0.00 | 0.00 | 63 | 1019.1 |
| 20260906050648 | 23 | 192 | 4.8 | 9.7 | 0.00 | 0.00 | 0.00 | 63 | 1019.1 |
| 20260906050147 | 23 | 163 | 4.8 | 11.3 | 0.00 | 0.00 | 0.00 | 62 | 1019.1 |
| 20260906045644 | 23 | 140 | 3.2 | 9.7 | 0.00 | 0.00 | 0.00 | 62 | 1019.1 |
| 20260906045150 | 23 | 149 | 4.8 | 9.7 | 0.00 | 0.00 | 0.00 | 61 | 1019.1 |
| 20260906044647 | 23 | 193 | 3.2 | 8.0 | 0.00 | 0.00 | 0.00 | 61 | 1019.0 |
| 20260906044148 | 23 | 173 | 3.2 | 11.3 | 0.00 | 0.00 | 0.00 | 60 | 1018.9 |
| 20260906043647 | 23 | 166 | 3.2 | 11.3 | 0.00 | 0.00 | 0.00 | 60 | 1018.9 |
| 20260906043147 | 23 | 144 | 3.2 | 12.9 | 0.00 | 0.00 | 0.00 | 60 | 1018.9 |
| 20260906042644 | 23 | 144 | 11.3 | 12.9 | 0.00 | 0.00 | 0.00 | 60 | 1018.9 |
| 20260906042147 | 23 | 159 | 6.4 | 12.9 | 0.00 | 0.00 | 0.00 | 59 | 1019.0 |
| 20260906041644 | 23 | 155 | 8.0 | 9.7 | 0.00 | 0.00 | 0.00 | 59 | 1018.9 |
| 20260906041144 | 23 | 136 | 1.6 | 12.9 | 0.00 | 0.00 | 0.00 | 59 | 1018.9 |
| 20260906040650 | 23 | 132 | 6.4 | 9.7 | 0.00 | 0.00 | 0.00 | 59 | 1018.7 |
| 20260906040150 | 23 | 152 | 6.4 | 11.3 | 0.00 | 0.00 | 0.00 | 58 | 1018.7 |
| 20260906035644 | 23 | 94 | 4.8 | 8.0 | 0.00 | 0.00 | 0.00 | 58 | 1018.7 |
| 20260906035144 | 23 | 150 | 8.0 | 9.7 | 0.00 | 0.00 | 0.00 | 58 | 1018.7 |
| 20260906034648 | 23 | 162 | 4.8 | 8.0 | 0.00 | 0.00 | 0.00 | 58 | 1018.7 |
| 20260906034147 | 23 | 170 | 3.2 | 11.3 | 0.00 | 0.00 | 0.00 | 58 | 1018.6 |
| 20260906033647 | 23 | 98 | 3.2 | 8.0 | 0.00 | 0.00 | 0.00 | 58 | 1018.5 |
| 20260906033144 | 24 | 128 | 6.4 | 9.7 | 0.00 | 0.00 | 0.00 | 57 | 1018.4 |
| 20260906032644 | 23 | 192 | 3.2 | 9.7 | 0.00 | 0.00 | 0.00 | 57 | 1018.4 |
| 20260906032144 | 23 | 146 | 4.8 | 9.7 | 0.00 | 0.00 | 0.00 | 57 | 1018.4 |
| 20260906031653 | 23 | 165 | 8.0 | 11.3 | 0.00 | 0.00 | 0.00 | 57 | 1018.5 |
| 20260906031144 | 24 | 160 | 4.8 | 9.7 | 0.00 | 0.00 | 0.00 | 56 | 1018.5 |
| 20260906030647 | 24 | 161 | 1.6 | 9.7 | 0.00 | 0.00 | 0.00 | 56 | 1018.5 |
| 20260906030144 | 24 | 234 | 1.6 | 12.9 | 0.00 | 0.00 | 0.00 | 56 | 1018.5 |
| 20260906025644 | 24 | 149 | 4.8 | 12.9 | 0.00 | 0.00 | 0.00 | 56 | 1018.5 |
| 20260906025144 | 24 | 131 | 3.2 | 11.3 | 0.00 | 0.00 | 0.00 | 56 | 1018.4 |
| 20260906024644 | 24 | 153 | 4.8 | 11.3 | 0.00 | 0.00 | 0.00 | 56 | 1018.5 |
| 20260906024144 | 24 | 167 | 3.2 | 12.9 | 0.00 | 0.00 | 0.00 | 56 | 1018.6 |
| 20260906023644 | 24 | 157 | 11.3 | 11.3 | 0.00 | 0.00 | 0.00 | 56 | 1018.6 |
| 20260906023144 | 24 | 131 | 4.8 | 12.9 | 0.00 | 0.00 | 0.00 | 56 | 1018.7 |
| 20260906022647 | 24 | 145 | 4.8 | 8.0 | 0.00 | 0.00 | 0.00 | 56 | 1018.7 |
| 20260906022144 | 24 | 161 | 4.8 | 11.3 | 0.00 | 0.00 | 0.00 | 56 | 1018.7 |
| 20260906021647 | 24 | 142 | 1.6 | 11.3 | 0.00 | 0.00 | 0.00 | 56 | 1018.7 |
| 20260906021147 | 24 | 175 | 1.6 | 6.4 | 0.00 | 0.00 | 0.00 | 57 | 1018.7 |
| 20260906020650 | 24 | 173 | 4.8 | 11.3 | 0.00 | 0.00 | 0.00 | 57 | 1018.7 |
| 20260906020145 | 24 | 146 | 1.6 | 9.7 | 0.00 | 0.00 | 0.00 | 58 | 1018.7 |
| 20260906015642 | 24 | 153 | 6.4 | 9.7 | 0.00 | 0.00 | 0.00 | 58 | 1018.7 |
| 20260906015142 | 24 | 136 | 8.0 | 12.9 | 0.00 | 0.00 | 0.00 | 58 | 1018.6 |
| 20260906014645 | 24 | 155 | 8.0 | 11.3 | 0.00 | 0.00 | 0.00 | 59 | 1018.7 |
| 20260906014142 | 24 | 167 | 0.0 | 6.4 | 0.00 | 0.00 | 0.00 | 59 | 1018.7 |
| 20260906013648 | 24 | 171 | 1.6 | 8.0 | 0.00 | 0.00 | 0.00 | 59 | 1018.6 |
| 20260906013142 | 24 | 173 | 4.8 | 8.0 | 0.00 | 0.00 | 0.00 | 60 | 1018.7 |
| 20260906012648 | 24 | 144 | 6.4 | 6.4 | 0.00 | 0.00 | 0.00 | 60 | 1018.6 |
| 20260906012142 | 24 | 148 | 1.6 | 9.7 | 0.00 | 0.00 | 0.00 | 61 | 1018.6 |
| 20260906011642 | 24 | 149 | 6.4 | 6.4 | 0.00 | 0.00 | 0.00 | 62 | 1018.6 |
| 20260906011142 | 24 | 151 | 1.6 | 6.4 | 0.00 | 0.00 | 0.00 | 62 | 1018.6 |
| 20260906010645 | 24 | 131 | 4.8 | 8.0 | 0.00 | 0.00 | 0.00 | 62 | 1018.6 |
| 20260906010142 | 24 | 167 | 4.8 | 8.0 | 0.00 | 0.00 | 0.00 | 62 | 1018.6 |
| 20260906005648 | 24 | 161 | 1.6 | 8.0 | 0.00 | 0.00 | 0.00 | 63 | 1018.6 |
| 20260906005146 | 25 | 169 | 6.4 | 11.3 | 0.00 | 0.00 | 0.00 | 62 | 1018.6 |
| 20260906004646 | 25 | 150 | 8.0 | 12.9 | 0.00 | 0.00 | 0.00 | 62 | 1018.6 |
| 20260906004148 | 25 | 139 | 1.6 | 8.0 | 0.00 | 0.00 | 0.00 | 63 | 1018.7 |
| 20260906003645 | 25 | 102 | 4.8 | 8.0 | 0.00 | 0.00 | 0.00 | 63 | 1018.7 |
| 20260906003149 | 25 | 142 | 3.2 | 9.7 | 0.00 | 0.00 | 0.00 | 64 | 1018.7 |
| 20260906002642 | 25 | 155 | 6.4 | 8.0 | 0.00 | 0.00 | 0.00 | 64 | 1018.8 |
| 20260906002151 | 25 | 184 | 6.4 | 11.3 | 0.00 | 0.00 | 0.00 | 64 | 1018.8 |
| 20260906001642 | 25 | 170 | 3.2 | 9.7 | 0.00 | 0.00 | 0.00 | 64 | 1018.8 |
| 20260906001145 | 25 | 191 | 9.7 | 11.3 | 0.00 | 0.00 | 0.00 | 64 | 1018.8 |
| 20260906000642 | 25 | 171 | 4.8 | 9.7 | 0.00 | 0.00 | 0.00 | 65 | 1018.8 |
| 20260906000148 | 25 | 105 | 8.0 | 11.3 | 0.00 | 0.00 | 0.00 | 66 | 1018.8 |
| 20260905235648 | 25 | 196 | 4.8 | 11.3 | 0.00 | 0.00 | 0.00 | 66 | 1019.0 |
| 20260905235142 | 25 | 160 | 3.2 | 9.7 | 0.00 | 0.00 | 0.00 | 66 | 1019.0 |
| 20260905234642 | 25 | 156 | 8.0 | 12.9 | 0.00 | 0.00 | 0.00 | 66 | 1019.1 |
| 20260905234143 | 25 | 194 | 4.8 | 11.3 | 0.00 | 0.00 | 0.00 | 67 | 1019.1 |
| 20260905233645 | 25 | 138 | 1.6 | 8.0 | 0.00 | 0.00 | 0.00 | 68 | 1019.1 |
| 20260905233148 | 25 | 121 | 3.2 | 8.0 | 0.00 | 0.00 | 0.00 | 69 | 1019.1 |
| 20260905232643 | 25 | 148 | 4.8 | 12.9 | 0.00 | 0.00 | 0.00 | 69 | 1019.2 |
| 20260905232146 | 25 | 148 | 4.8 | 12.9 | 0.00 | 0.00 | 0.00 | 70 | 1019.2 |
| 20260905231645 | 25 | 138 | 4.8 | 12.9 | 0.00 | 0.00 | 0.00 | 70 | 1019.1 |
| 20260905231143 | 25 | 155 | 1.6 | 12.9 | 0.00 | 0.00 | 0.00 | 71 | 1019.1 |
| 20260905230646 | 25 | 178 | 8.0 | 9.7 | 0.00 | 0.00 | 0.00 | 71 | 1019.2 |
| 20260905230146 | 25 | 150 | 3.2 | 11.3 | 0.00 | 0.00 | 0.00 | 71 | 1019.2 |
| 20260905225643 | 25 | 182 | 0.0 | 6.4 | 0.00 | 0.00 | 0.00 | 71 | 1019.2 |
| 20260905225143 | 25 | 186 | 3.2 | 9.7 | 0.00 | 0.00 | 0.00 | 71 | 1019.2 |
| 20260905224643 | 25 | 138 | 0.0 | 9.7 | 0.00 | 0.00 | 0.00 | 72 | 1019.1 |
| 20260905224143 | 25 | 186 | 6.4 | 11.3 | 0.00 | 0.00 | 0.00 | 72 | 1019.2 |
| 20260905223652 | 25 | 140 | 9.7 | 12.9 | 0.00 | 0.00 | 0.00 | 72 | 1019.2 |
| 20260905223143 | 25 | 125 | 3.2 | 9.7 | 0.00 | 0.00 | 0.00 | 72 | 1019.2 |
| 20260905222646 | 25 | 145 | 4.8 | 8.0 | 0.00 | 0.00 | 0.00 | 72 | 1019.3 |
| 20260905222146 | 25 | 187 | 1.6 | 8.0 | 0.00 | 0.00 | 0.00 | 72 | 1019.3 |
| 20260905221649 | 25 | 182 | 6.4 | 11.3 | 0.00 | 0.00 | 0.00 | 72 | 1019.2 |
| 20260905221143 | 26 | 138 | 4.8 | 8.0 | 0.00 | 0.00 | 0.00 | 72 | 1019.1 |
| 20260905220643 | 26 | 153 | 6.4 | 9.7 | 0.00 | 0.00 | 0.00 | 72 | 1019.2 |
| 20260905220143 | 26 | 158 | 4.8 | 8.0 | 0.00 | 0.00 | 0.00 | 72 | 1019.2 |
| 20260905215649 | 26 | 153 | 4.8 | 11.3 | 0.00 | 0.00 | 0.00 | 71 | 1019.2 |
| 20260905215143 | 26 | 138 | 6.4 | 8.0 | 0.00 | 0.00 | 0.00 | 71 | 1019.2 |
| 20260905214646 | 26 | 184 | 6.4 | 9.7 | 0.00 | 0.00 | 0.00 | 71 | 1019.2 |
| 20260905214143 | 26 | 137 | 1.6 | 9.7 | 0.00 | 0.00 | 0.00 | 71 | 1019.2 |
| 20260905213646 | 26 | 142 | 6.4 | 11.3 | 0.00 | 0.00 | 0.00 | 71 | 1019.3 |
| 20260905213143 | 26 | 173 | 1.6 | 9.7 | 0.00 | 0.00 | 0.00 | 72 | 1019.3 |
| 20260905212646 | 26 | 181 | 6.4 | 9.7 | 0.00 | 0.00 | 0.00 | 72 | 1019.2 |
| 20260905212143 | 26 | 162 | 0.0 | 11.3 | 0.00 | 0.00 | 0.00 | 72 | 1019.3 |
| 20260905211643 | 26 | 134 | 3.2 | 9.7 | 0.00 | 0.00 | 0.00 | 72 | 1019.2 |
| 20260905211146 | 26 | 132 | 3.2 | 9.7 | 0.00 | 0.00 | 0.00 | 72 | 1019.2 |
| 20260905210643 | 26 | 136 | 4.8 | 12.9 | 0.00 | 0.00 | 0.00 | 72 | 1019.3 |
| 20260905210143 | 26 | 166 | 6.4 | 11.3 | 0.00 | 0.00 | 0.00 | 71 | 1019.3 |
| 20260905205646 | 26 | 155 | 6.4 | 9.7 | 0.00 | 0.00 | 0.00 | 71 | 1019.3 |
| 20260905205143 | 26 | 149 | 1.6 | 8.0 | 0.00 | 0.00 | 0.00 | 71 | 1019.3 |
| 20260905204643 | 26 | 163 | 4.8 | 6.4 | 0.00 | 0.00 | 0.00 | 70 | 1019.3 |
| 20260905204146 | 26 | 163 | 1.6 | 8.0 | 0.00 | 0.00 | 0.00 | 70 | 1019.3 |
| 20260905203643 | 26 | 181 | 3.2 | 8.0 | 0.00 | 0.00 | 0.00 | 70 | 1019.2 |
| 20260905203146 | 26 | 109 | 0.0 | 9.7 | 0.00 | 0.00 | 0.00 | 70 | 1019.2 |
| 20260905202643 | 26 | 157 | 3.2 | 11.3 | 0.00 | 0.00 | 0.00 | 69 | 1019.2 |
| 20260905202146 | 26 | 161 | 6.4 | 9.7 | 0.00 | 0.00 | 0.00 | 69 | 1019.3 |
| 20260905201643 | 26 | 128 | 3.2 | 11.3 | 0.00 | 0.00 | 0.00 | 69 | 1019.4 |
| 20260905201149 | 26 | 142 | 1.6 | 11.3 | 0.00 | 0.00 | 0.00 | 69 | 1019.4 |
| 20260905200646 | 26 | 153 | 4.8 | 12.9 | 0.00 | 0.00 | 0.00 | 69 | 1019.3 |
| 20260905200146 | 26 | 170 | 1.6 | 8.0 | 0.00 | 0.00 | 0.00 | 68 | 1019.3 |
| 20260905195643 | 26 | 136 | 6.4 | 9.7 | 0.00 | 0.00 | 0.00 | 68 | 1019.4 |
| 20260905195152 | 26 | 153 | 6.4 | 9.7 | 0.00 | 0.00 | 0.00 | 68 | 1019.4 |
| 20260905194643 | 27 | 167 | 4.8 | 11.3 | 0.00 | 0.00 | 0.00 | 68 | 1019.3 |
| 20260905194149 | 27 | 154 | 1.6 | 9.7 | 0.00 | 0.00 | 0.00 | 67 | 1019.4 |
| 20260905193646 | 27 | 121 | 3.2 | 8.0 | 0.00 | 0.00 | 0.00 | 67 | 1019.4 |
| 20260905193146 | 27 | 159 | 3.2 | 9.7 | 0.00 | 0.00 | 0.00 | 67 | 1019.4 |
| 20260905192647 | 27 | 142 | 0.0 | 8.0 | 0.00 | 0.00 | 0.00 | 68 | 1019.3 |
| 20260905192146 | 27 | 130 | 1.6 | 4.8 | 0.00 | 0.00 | 0.00 | 68 | 1019.3 |
| 20260905191643 | 27 | 123 | 3.2 | 6.4 | 0.00 | 0.00 | 0.00 | 69 | 1019.2 |
| 20260905191143 | 27 | 151 | 3.2 | 9.7 | 0.00 | 0.00 | 0.00 | 69 | 1019.2 |
| 20260905190643 | 27 | 184 | 4.8 | 11.3 | 0.00 | 0.00 | 0.00 | 69 | 1019.1 |
| 20260905190146 | 27 | 165 | 4.8 | 8.0 | 0.00 | 0.00 | 0.00 | 69 | 1019.1 |
| 20260905185643 | 27 | 127 | 3.2 | 8.0 | 0.00 | 0.00 | 0.00 | 69 | 1019.0 |
| 20260905185152 | 27 | 146 | 0.0 | 6.4 | 0.00 | 0.00 | 0.00 | 69 | 1018.8 |
| 20260905184646 | 28 | 146 | 0.0 | 4.8 | 0.00 | 0.00 | 0.00 | 69 | 1018.8 |
| 20260905184146 | 28 | 138 | 1.6 | 8.0 | 0.00 | 0.00 | 0.00 | 68 | 1018.8 |
| 20260905183643 | 28 | 146 | 0.0 | 1.6 | 0.00 | 0.00 | 0.00 | 69 | 1018.7 |
| 20260905183143 | 28 | 146 | 1.6 | 6.4 | 0.00 | 0.00 | 0.00 | 68 | 1018.8 |
| 20260905182643 | 28 | 5 | 0.0 | 4.8 | 0.00 | 0.00 | 0.00 | 70 | 1018.7 |
| 20260905182146 | 28 | 350 | 0.0 | 4.8 | 0.00 | 0.00 | 0.00 | 70 | 1018.6 |
| 20260905181646 | 28 | 335 | 0.0 | 4.8 | 0.00 | 0.00 | 0.00 | 71 | 1018.6 |
| 20260905181143 | 28 | 335 | 3.2 | 4.8 | 0.00 | 0.00 | 0.00 | 71 | 1018.6 |
| 20260905180646 | 28 | 303 | 0.0 | 4.8 | 0.00 | 0.00 | 0.00 | 70 | 1018.5 |
| 20260905180149 | 28 | 342 | 3.2 | 6.4 | 0.00 | 0.00 | 0.00 | 70 | 1018.5 |
| 20260905175646 | 29 | 355 | 3.2 | 6.4 | 0.00 | 0.00 | 0.00 | 70 | 1018.4 |
| 20260905175144 | 29 | 275 | 0.0 | 4.8 | 0.00 | 0.00 | 0.00 | 69 | 1018.4 |
| 20260905174646 | 29 | 308 | 0.0 | 4.8 | 0.00 | 0.00 | 0.00 | 69 | 1018.4 |
| 20260905174149 | 29 | 296 | 3.2 | 4.8 | 0.00 | 0.00 | 0.00 | 69 | 1018.4 |
| 20260905173646 | 29 | 293 | 4.8 | 6.4 | 0.00 | 0.00 | 0.00 | 68 | 1018.4 |
| 20260905173146 | 29 | 281 | 6.4 | 8.0 | 0.00 | 0.00 | 0.00 | 68 | 1018.3 |
| 20260905172646 | 29 | 301 | 1.6 | 6.4 | 0.00 | 0.00 | 0.00 | 67 | 1018.3 |
| 20260905172146 | 29 | 292 | 3.2 | 8.0 | 0.00 | 0.00 | 0.00 | 67 | 1018.3 |
| 20260905171646 | 30 | 284 | 4.8 | 8.0 | 0.00 | 0.00 | 0.00 | 66 | 1018.3 |
| 20260905171143 | 30 | 294 | 4.8 | 8.0 | 0.00 | 0.00 | 0.00 | 65 | 1018.3 |
| 20260905170649 | 30 | 267 | 6.4 | 8.0 | 0.00 | 0.00 | 0.00 | 65 | 1018.3 |
| 20260905170143 | 30 | 312 | 3.2 | 9.7 | 0.00 | 0.00 | 0.00 | 64 | 1018.2 |
| 20260905165649 | 30 | 334 | 4.8 | 6.4 | 0.00 | 0.00 | 0.00 | 64 | 1018.2 |
| 20260905165143 | 30 | 268 | 4.8 | 8.0 | 0.00 | 0.00 | 0.00 | 63 | 1018.2 |
| 20260905164643 | 30 | 296 | 4.8 | 9.7 | 0.00 | 0.00 | 0.00 | 63 | 1018.2 |
| 20260905164143 | 30 | 301 | 3.2 | 9.7 | 0.00 | 0.00 | 0.00 | 63 | 1018.2 |
| 20260905163646 | 30 | 312 | 6.4 | 9.7 | 0.00 | 0.00 | 0.00 | 62 | 1018.2 |
| 20260905163143 | 31 | 289 | 3.2 | 9.7 | 0.00 | 0.00 | 0.00 | 61 | 1018.3 |
| 20260905162643 | 30 | 323 | 1.6 | 11.3 | 0.00 | 0.00 | 0.00 | 61 | 1018.3 |
| 20260905162143 | 30 | 337 | 4.8 | 9.7 | 0.00 | 0.00 | 0.00 | 63 | 1018.2 |
| 20260905161643 | 30 | 342 | 3.2 | 9.7 | 0.00 | 0.00 | 0.00 | 61 | 1018.3 |
| 20260905161143 | 30 | 305 | 1.6 | 12.9 | 0.00 | 0.00 | 0.00 | 62 | 1018.4 |
| 20260905160646 | 31 | 40 | 3.2 | 11.3 | 0.00 | 0.00 | 0.00 | 59 | 1018.4 |
| 20260905160146 | 31 | 342 | 1.6 | 11.3 | 0.00 | 0.00 | 0.00 | 60 | 1018.4 |
| 20260905155646 | 31 | 311 | 11.3 | 12.9 | 0.00 | 0.00 | 0.00 | 60 | 1018.3 |
| 20260905155146 | 31 | 347 | 1.6 | 9.7 | 0.00 | 0.00 | 0.00 | 62 | 1018.3 |
| 20260905154643 | 31 | 333 | 4.8 | 12.9 | 0.00 | 0.00 | 0.00 | 61 | 1018.3 |
| 20260905154143 | 31 | 314 | 6.4 | 14.5 | 0.00 | 0.00 | 0.00 | 61 | 1018.3 |
| 20260905153646 | 31 | 342 | 4.8 | 12.9 | 0.00 | 0.00 | 0.00 | 61 | 1018.3 |
| 20260905153149 | 31 | 287 | 9.7 | 11.3 | 0.00 | 0.00 | 0.00 | 61 | 1018.3 |
| 20260905152649 | 31 | 38 | 4.8 | 17.7 | 0.00 | 0.00 | 0.00 | 60 | 1018.3 |
| 20260905152143 | 31 | 334 | 6.4 | 17.7 | 0.00 | 0.00 | 0.00 | 59 | 1018.3 |
| 20260905151643 | 31 | 282 | 6.4 | 11.3 | 0.00 | 0.00 | 0.00 | 59 | 1018.2 |
| 20260905151143 | 32 | 275 | 9.7 | 14.5 | 0.00 | 0.00 | 0.00 | 58 | 1018.2 |
| 20260905150643 | 32 | 300 | 9.7 | 11.3 | 0.00 | 0.00 | 0.00 | 58 | 1018.2 |
| 20260905150143 | 32 | 308 | 8.0 | 14.5 | 0.00 | 0.00 | 0.00 | 55 | 1018.2 |
| 20260905145643 | 32 | 298 | 0.0 | 9.7 | 0.00 | 0.00 | 0.00 | 54 | 1018.2 |
| 20260905145143 | 32 | 276 | 8.0 | 11.3 | 0.00 | 0.00 | 0.00 | 51 | 1018.2 |
| 20260905144650 | 32 | 5 | 8.0 | 14.5 | 0.00 | 0.00 | 0.00 | 51 | 1018.2 |
| 20260905144146 | 32 | 339 | 4.8 | 11.3 | 0.00 | 0.00 | 0.00 | 54 | 1018.2 |
| 20260905143643 | 32 | 333 | 3.2 | 11.3 | 0.00 | 0.00 | 0.00 | 53 | 1018.2 |
| 20260905143143 | 32 | 355 | 6.4 | 8.0 | 0.00 | 0.00 | 0.00 | 49 | 1018.2 |
| 20260905142643 | 32 | 330 | 6.4 | 12.9 | 0.00 | 0.00 | 0.00 | 40 | 1018.3 |
| 20260905142149 | 32 | 292 | 3.2 | 12.9 | 0.00 | 0.00 | 0.00 | 46 | 1018.3 |
| 20260905141649 | 32 | 295 | 6.4 | 8.0 | 0.00 | 0.00 | 0.00 | 44 | 1018.2 |
| 20260905141143 | 32 | 326 | 1.6 | 9.7 | 0.00 | 0.00 | 0.00 | 43 | 1018.3 |
| 20260905140643 | 32 | 245 | 3.2 | 14.5 | 0.00 | 0.00 | 0.00 | 44 | 1018.3 |
| 20260905140143 | 32 | 323 | 4.8 | 9.7 | 0.00 | 0.00 | 0.00 | 45 | 1018.3 |
| 20260905135643 | 32 | 272 | 4.8 | 12.9 | 0.00 | 0.00 | 0.00 | 44 | 1018.3 |
| 20260905135149 | 32 | 16 | 3.2 | 9.7 | 0.00 | 0.00 | 0.00 | 46 | 1018.3 |
| 20260905134652 | 32 | 355 | 6.4 | 11.3 | 0.00 | 0.00 | 0.00 | 47 | 1018.3 |
| 20260905134146 | 32 | 264 | 4.8 | 11.3 | 0.00 | 0.00 | 0.00 | 50 | 1018.4 |
| 20260905133643 | 32 | 303 | 3.2 | 14.5 | 0.00 | 0.00 | 0.00 | 49 | 1018.4 |
| 20260905133143 | 32 | 348 | 9.7 | 9.7 | 0.00 | 0.00 | 0.00 | 51 | 1018.4 |
| 20260905132650 | 32 | 285 | 6.4 | 14.5 | 0.00 | 0.00 | 0.00 | 53 | 1018.5 |
| 20260905132143 | 32 | 250 | 1.6 | 12.9 | 0.00 | 0.00 | 0.00 | 52 | 1018.5 |
| 20260905131643 | 32 | 281 | 1.6 | 9.7 | 0.00 | 0.00 | 0.00 | 54 | 1018.6 |
| 20260905131143 | 32 | 292 | 6.4 | 12.9 | 0.00 | 0.00 | 0.00 | 55 | 1018.6 |
| 20260905130643 | 32 | 279 | 8.0 | 14.5 | 0.00 | 0.00 | 0.00 | 55 | 1018.6 |
| 20260905130146 | 32 | 290 | 11.3 | 11.3 | 0.00 | 0.00 | 0.00 | 55 | 1018.7 |
| 20260905125649 | 32 | 248 | 6.4 | 12.9 | 0.00 | 0.00 | 0.00 | 55 | 1018.7 |
| 20260905125149 | 32 | 296 | 9.7 | 12.9 | 0.00 | 0.00 | 0.00 | 54 | 1018.8 |
| 20260905124643 | 32 | 298 | 6.4 | 12.9 | 0.00 | 0.00 | 0.00 | 54 | 1018.8 |
| 20260905124146 | 32 | 281 | 6.4 | 9.7 | 0.00 | 0.00 | 0.00 | 55 | 1018.8 |
| 20260905123643 | 32 | 340 | 1.6 | 11.3 | 0.00 | 0.00 | 0.00 | 53 | 1018.8 |
| 20260905123149 | 32 | 345 | 8.0 | 9.7 | 0.00 | 0.00 | 0.00 | 55 | 1018.9 |
| 20260905122652 | 32 | 309 | 6.4 | 11.3 | 0.00 | 0.00 | 0.00 | 56 | 1018.8 |
| 20260905122149 | 31 | 24 | 1.6 | 16.1 | 0.00 | 0.00 | 0.00 | 57 | 1018.8 |
| 20260905121646 | 31 | 313 | 3.2 | 12.9 | 0.00 | 0.00 | 0.00 | 59 | 1018.9 |
| 20260905121143 | 32 | 320 | 8.0 | 11.3 | 0.00 | 0.00 | 0.00 | 57 | 1018.9 |
| 20260905120646 | 32 | 281 | 3.2 | 12.9 | 0.00 | 0.00 | 0.00 | 57 | 1019.0 |
| 20260905120143 | 32 | 285 | 8.0 | 11.3 | 0.00 | 0.00 | 0.00 | 58 | 1019.0 |
| 20260905115646 | 32 | 228 | 1.6 | 14.5 | 0.00 | 0.00 | 0.00 | 57 | 1019.1 |
| 20260905115146 | 32 | 336 | 8.0 | 11.3 | 0.00 | 0.00 | 0.00 | 56 | 1019.1 |
| 20260905114643 | 32 | 260 | 8.0 | 11.3 | 0.00 | 0.00 | 0.00 | 56 | 1019.1 |
| 20260905114143 | 32 | 320 | 3.2 | 9.7 | 0.00 | 0.00 | 0.00 | 56 | 1019.1 |
| 20260905113643 | 32 | 292 | 1.6 | 11.3 | 0.00 | 0.00 | 0.00 | 57 | 1019.1 |
| 20260905113152 | 32 | 314 | 4.8 | 16.1 | 0.00 | 0.00 | 0.00 | 57 | 1019.1 |
| 20260905112643 | 31 | 309 | 1.6 | 11.3 | 0.00 | 0.00 | 0.00 | 58 | 1019.1 |
| 20260905112149 | 31 | 14 | 8.0 | 11.3 | 0.00 | 0.00 | 0.00 | 57 | 1019.1 |
| 20260905111643 | 31 | 323 | 3.2 | 11.3 | 0.00 | 0.00 | 0.00 | 58 | 1019.2 |
| 20260905111143 | 32 | 276 | 9.7 | 12.9 | 0.00 | 0.00 | 0.00 | 59 | 1019.1 |
| 20260905110646 | 32 | 304 | 4.8 | 9.7 | 0.00 | 0.00 | 0.00 | 60 | 1019.1 |
| 20260905110143 | 32 | 281 | 3.2 | 12.9 | 0.00 | 0.00 | 0.00 | 57 | 1019.2 |
| 20260905105649 | 31 | 317 | 4.8 | 9.7 | 0.00 | 0.00 | 0.00 | 58 | 1019.1 |
| 20260905105149 | 31 | 284 | 9.7 | 9.7 | 0.00 | 0.00 | 0.00 | 59 | 1019.1 |
| 20260905104643 | 31 | 260 | 4.8 | 16.1 | 0.00 | 0.00 | 0.00 | 59 | 1019.0 |
| 20260905104143 | 31 | 319 | 8.0 | 16.1 | 0.00 | 0.00 | 0.00 | 55 | 1019.1 |
| 20260905103643 | 31 | 315 | 8.0 | 9.7 | 0.00 | 0.00 | 0.00 | 59 | 1019.0 |
| 20260905103143 | 31 | 5 | 8.0 | 12.9 | 0.00 | 0.00 | 0.00 | 59 | 1019.0 |
| 20260905102652 | 31 | 308 | 9.7 | 12.9 | 0.00 | 0.00 | 0.00 | 58 | 1019.1 |
| 20260905102143 | 31 | 290 | 8.0 | 14.5 | 0.00 | 0.00 | 0.00 | 57 | 1019.1 |
| 20260905101643 | 31 | 304 | 4.8 | 11.3 | 0.00 | 0.00 | 0.00 | 57 | 1019.1 |
| 20260905101146 | 31 | 274 | 6.4 | 12.9 | 0.00 | 0.00 | 0.00 | 56 | 1019.1 |
| 20260905100643 | 31 | 292 | 4.8 | 14.5 | 0.00 | 0.00 | 0.00 | 56 | 1019.1 |
| 20260905100143 | 31 | 283 | 6.4 | 16.1 | 0.00 | 0.00 | 0.00 | 55 | 1019.0 |